Regional Weather Roundup
Issued by NWS

Home | Current Version | Previous Version | Text Only | Print | Product List | Glossary On
Versions: 1 2 3 4 5 6 7 8 9 10 11 12 13 14 15 16 17 18 19 20 21 22 23 24 25 26 27 28 29 30 31 32 33 34 35 36 37 38 39 40 41 42 43 44 45 46 47 48 49 50
000
ASUS44 KFWD 302203
RWRTX
NORTH TEXAS HOURLY WEATHER ROUNDUP
NATIONAL WEATHER SERVICE FORT WORTH TX
500 PM CDT THU JUL 30 2015

NOTE: "FAIR" INDICATES FEW OR NO CLOUDS BELOW 12,000 FEET WITH NO
SIGNIFICANT WEATHER AND/OR OBSTRUCTIONS TO VISIBILITY.

TXZ118-119-302300-
DALLAS/FORT WORTH METROPLEX

CITY           SKY/WX    TMP DP  RH WIND       PRES   REMARKS
DFW AIRPORT    MOSUNNY  100  61  27 SE8       30.00F HX 101
DALLAS LOVE    MOSUNNY  103  64  28 VRB5      29.99F HX 106
FTW MEACHAM    SUNNY    102  59  24 VRB5      30.00F HX 102
DAL-EXECUTIVE  MOSUNNY  101  62  27 VRB3      29.99F HX 102
FTW-ALLIANCE   MOSUNNY  102  62  26 NE9       30.01F HX 104
FTW-NAS-JRB    MOSUNNY  102  60  25 N3        30.00F HX 103
FTW-SPINKS     MOSUNNY  100  57  23 CALM      30.02F HX  99
ARLINGTON      MOSUNNY  102  59  24 E6        30.00F HX 102
GRAND PRAIRIE  SUNNY    100  63  28 N3        30.01F HX 102
ADDISON        MOSUNNY  100  61  27 W7        30.02F HX 101
MESQUITE       SUNNY    100  61  27 N6        30.00F HX 101
LANCASTER      MOSUNNY  101  59  25 SE5       30.00F HX 101
$$

TXZ091>094-102>105-117-120-121-131>134-302300-
NORTH CENTRAL TEXAS

CITY           SKY/WX    TMP DP  RH WIND       PRES   REMARKS
SHRMAN/DENISON SUNNY    100  67  34 N8        30.04F HX 104
GAINESVILLE    PTSUNNY   96  67  38 NE6       30.05F HX  99
BOWIE          SUNNY     98  60  28 S3        30.04F HX  98
DECATUR        SUNNY     99  61  28 CALM      30.04F HX  99
DENTON         SUNNY    101  61  26 MISG      30.01F HX 102
MCKINNEY       SUNNY    100  63  29 SE6       30.01F HX 102
ROCKWALL       SUNNY    100  66  33 NW8       29.99F HX 104
TERRELL        SUNNY    102  63  27 NE9       30.00F HX 104
WAXAHACHIE     MOSUNNY  101  65  31 CALM      30.01F HX 104
CLEBURNE       MOSUNNY  100  61  27 CALM      30.03F HX 101
GRANBURY       SUNNY    101  58  23 N5        30.02F HX 101
$$

TXZ083>090-098>101-113>116-127>130-139>142-154-155-302300-
WESTERN NORTH TEXAS

CITY           SKY/WX    TMP DP  RH WIND       PRES   REMARKS
WICHITA FALLS  MOSUNNY  100  63  29 VRB5      30.02F HX 102
WF-KICKAPOO    SUNNY    101  59  25 NE3       30.04F HX 101
VERNON         SUNNY     97  60  28 N10G16    30.06F HX  97
ABILENE        RAIN      88  67  49 NE12G20   30.09F HX  91
BRECKENRIDGE   SUNNY    100  62  28 E6        30.04F HX 101
GRAHAM         SUNNY     97  67  37 E3        30.02F HX 100
MINERAL WELLS  MOSUNNY  100  63  29 E5        30.02F HX 102
STEPHENVILLE   MOSUNNY   98  58  26 CALM      30.07F HX  97
COMANCHE       PTSUNNY   98  64  32 E5        30.06F HX 100
COLEMAN        SUNNY     97  62  31 SE5       30.07F HX  98
BRADY          SUNNY     99  61  28 E7        30.06F HX  99
$$

TXZ143>147-156>162-174-175-302300-
CENTRAL TEXAS

CITY           SKY/WX    TMP DP  RH WIND       PRES   REMARKS
WACO           MOSUNNY  101  64  29 VRB7      29.99F HX 104
WACO-TSTC      SUNNY    102  63  27 CALM      29.98F HX 104
HILLSBORO      SUNNY    100  60  27 CALM      30.00F HX 100
CORSICANA      SUNNY    103  63  27 VRB5      30.00F HX 105
MEXIA          MOSUNNY  100  67  33 N8        29.98F HX 104
HEARNE         SUNNY    102  66  31 NE3       29.98F HX 106
CAMERON        SUNNY    102  66  31 W6        29.98F HX 106
TEMPLE         MOSUNNY  102  63  27 SE3       30.00F HX 104
KILLEEN        MOSUNNY   99  60  27 SE7       30.01F HX  99
KILLEEN-SKYLRK SUNNY     99  63  30 SE6       30.00F HX 100
FORT HOOD      MOSUNNY  100  62  29 S8        30.00F HX 101
GATESVILLE     MOSUNNY  100  63  28 E6        30.03F HX 102
HAMILTON       MOSUNNY  100  58  25 SE8       30.05F HX  99
LAMPASAS       MOSUNNY  101  61  27 E9G17     30.03F HX 102
$$

TXZ095>097-106>112-122>126-135>138-148>153-164>167-302300-
EAST TEXAS

CITY           SKY/WX    TMP DP  RH WIND       PRES   REMARKS
PARIS          SUNNY    100  66  32 N5        30.01F HX 104
SULPHUR SPRNGS PTSUNNY  101  63  28 CALM      30.02F HX 103
MOUNT PLEASANT SUNNY    101  62  27 N6        30.00F HX 103
GILMER         SUNNY     99  68  35 E6        29.99F HX 104
MINEOLA        SUNNY    100  57  23 N6        30.00F HX  99
TYLER          MOSUNNY  102  66  30 NE6       29.99F HX 106
LONGVIEW       MOSUNNY  102  67  31 N8        29.97F HX 107
MARSHALL       MOSUNNY  101  72  39 NE8       30.00S HX 110
ATHENS         SUNNY     99  64  32 N6        29.98S HX 101
PALESTINE      SUNNY    101  64  29 N7        29.99F HX 103
JACKSONVILLE   MOSUNNY  100  61  27 N7        30.02S HX 101
HENDERSON      SUNNY     99  66  34 N6        29.99F HX 103
CENTER         FAIR     101  67  32 N8        29.96S HX 106
NACOGDOCHES    SUNNY     99  68  36 N6        29.96S HX 104
LUFKIN         MOSUNNY   99  67  35 N7        29.96F HX 103
$$

SUPPLEMENTAL OBSERVATIONS (CENTRAL)

CITY           SKY/WX    TMP DP  RH WIND       PRES   REMARKS
$$

SUPPLEMENTAL OBSERVATIONS (WEST)

CITY           SKY/WX    TMP DP  RH WIND       PRES   REMARKS
$$

SUPPLEMENTAL OBSERVATIONS (EAST)

CITY           SKY/WX    TMP DP  RH WIND       PRES   REMARKS
$$

SUPPLEMENTAL OBSERVATIONS ARE A COLLECTION OF AUTOMATED INSTRUMENTS
THAT ARE MAINTAINED BY A VARIETY OF FEDERAL AND STATE AGENCIES.
CERTAIN ELEMENTS...SUCH AS HUMIDITY VALUES AND SUSTAINED WIND
SPEEDS...MAY BE APPROXIMATED.




USA.gov is the U.S. government's official web portal to all federal, state and local government web resources and services.